DECAYED

COSMOS 2251 DEB, 36424 (Decayed)

Orbit data source: Space-Track

COSMOS 2251 DEB, 36424 was space debris in LEO originally from a launch on Wed, 16 Jun 1993 UTC launched from the Plesetsk Missile And Space Complex (PKMTR). The debris from Iridium 33, an American commercial communications satellite, has been tracked extensively since its accidental collision with the defunct Russian satellite Cosmos 2251 in 2009. This event, occurring at high speed in low Earth orbit (LEO), generated thousands of pieces of space debris, significantly increasing the risk of further collisions. The Iridium 33 debris cloud has impacted space traffic management and orbital debris mitigation strategies, making it a subject of ongoing study in space situational awareness.

Not visible in the next 10 days
Identifier
36424, 1993-036AZX
Orbit
Decayed
Country
Flag of CISCIS
Related business
Manufacturer
Unknown
Mission
Decayed spacecraft
Bus & Motor
Unknown
Mass
Unknown
Launch date (UTC)
1993-06-16 (33 years ago)
Launch vehicle
Unknown
Launch site
Plesetsk Missile And Space Complex (PKMTR)
Object type
Payload
Rocket body
Debris
Shape & HBR
Unknown shape, 0.1 m
Radar Cross Section
Small (<0.1 m²)

Expand to show TLE details & history
Last TLE update: 1 year ago

TLE from 1 year ago
0 COSMOS 2251 DEB
1 36424U 93036AZX 25204.26163544  .01336635  00000-0  21775-1 0  9994
2 36424  74.1496  39.1023 0018754 199.8144 160.2343 15.49463055820282
Epoch: 2025-07-23T06:16Z
TLE epoch observation values (Epoch: 2025-07-23T06:16:45.302Z)
Latitude
-0.00004°
Longitude
3.66966°
Altitude
433.05 km
Speed
7.645 km/s
True Right ascension
02h 36m 24s
True Declination
0° 00' 00"
Sunlit
Object was in daylight at epoch
Visualization orbit readout
Latitude
Unknown
Longitude
Unknown
Altitude
Unknown
Speed
Unknown
Apparent Right ascension
Unknown
Apparent Declination
Unknown
Sunlit
N/A
Visualization observer readout
Local Sidereal Time
13:49:27
Azimuth
Unknown
Elevation
Unknown
Doppler factor
Unknown
Orbital elements
Apogee altitude
428.527 km
Perigee altitude
403.044 km
Semi-major axis
6,793.923 km
Eccentricity
0.00188
Inclination
74.1496°
RAAN
39.1023°
Arg. of periapsis
199.8144°
True anomaly
160.30682°
Mean anomaly
160.2343°
Eccentric anomaly
160.27057°
Mean motion
3.87581 °/min
Orbital period
92.88 mins
BSTAR
0.021775
Loading maneuver chart data...
Computing Atmospheric mass density...

Documentation

Showing up to 5 results
|